Location: Eaglesham
(55.7833°N, 117.9000°W)
Time: 08:37:31
(UTC+00:00)

ISS - Pass Details

Date: 06 December 2021
Orbit: 413 x 422 km, 51.6° (Epoch: 23 January)

Event Time Altitude Azimuth Distance (km) Brightness Sun altitude
Rises 01:22:44 0° 273° (W) 2,386 1.5 -15.8°
Reaches altitude 10° 01:25:16 10° 254° (WSW) 1,516 0.4 -16.1°
Maximum altitude 01:27:41 18° 209° (SSW) 1,109 -1.1 -16.4°
Drops below altitude 10° 01:30:05 10° 164° (SSE) 1,507 -0.9 -16.7°
Enters shadow 01:31:32 - 151° (SSE) 1,977 -0.5 -16.9°
